| time (UTC) | temp F | wind direction | speed MPH | gust MPH | rain 1hr in | rain 24hr in | rain mn in | humidity % | barometer mb |
| 20260502190640 | 0 | 0.0 | 0.0 | 0.00 | 0.00 | 0.00 | |||
| 20260502185704 | 67 | 0.0 | 1.0 | 0.00 | 0.00 | 0.00 | 77 | ||
| 20260502184701 | 67 | 0.0 | 0.0 | 0.00 | 0.00 | 0.00 | 76 | ||
| 20260502183704 | 67 | 0.0 | 0.0 | 0.00 | 0.00 | 0.00 | 75 | ||
| 20260502182640 | 68 | 0.0 | 0.0 | 0.00 | 0.00 | 0.00 | 75 | ||
| 20260502181704 | 68 | 0.0 | 0.0 | 0.00 | 0.00 | 0.00 | 74 | ||
| 20260502180700 | 68 | 0.0 | 0.0 | 0.00 | 0.00 | 0.00 | 74 | ||
| 20260502163724 | 71 | 0.0 | 0.0 | 0.00 | 0.00 | 0.00 | 71 | ||
| 20260502162640 | 71 | 0.0 | 0.0 | 0.00 | 0.00 | 0.00 | 71 | ||
| 20260502161705 | 72 | 0.0 | 0.0 | 0.00 | 0.00 | 0.00 | 70 | ||
| 20260502160640 | 0 | 0.0 | 0.0 | 0.00 | 0.00 | 0.00 | |||
| 20260502151705 | 75 | 315 | 1.0 | 1.0 | 0.00 | 0.00 | 0.00 | 61 | |
| 20260502150641 | 75 | 0.0 | 1.0 | 0.00 | 0.00 | 0.00 | 61 | ||
| 20260502130641 | 73 | 0.0 | 1.0 | 0.00 | 0.00 | 0.00 | 66 | ||
| 20260502123705 | 74 | 0.0 | 1.0 | 0.00 | 0.00 | 0.00 | 69 | ||
| 20260502122641 | 72 | 0.0 | 1.0 | 0.00 | 0.00 | 0.00 | 72 | ||
| 20260502121706 | 71 | 0.0 | 0.0 | 0.00 | 0.00 | 0.00 | 71 | ||
| 20260502120641 | 72 | 0.0 | 1.0 | 0.00 | 0.00 | 0.00 | 71 | ||
| 20260502115725 | 73 | 0.0 | 0.0 | 0.00 | 0.00 | 0.00 | 67 | ||
| 20260502114641 | 73 | 0.0 | 1.0 | 0.00 | 0.00 | 0.00 | 65 | ||
| 20260502113705 | 73 | 0.0 | 1.0 | 0.00 | 0.00 | 0.00 | 64 | ||
| 20260502112642 | 75 | 0.0 | 1.0 | 0.00 | 0.00 | 0.00 | 63 | ||
| 20260502111705 | 74 | 0.0 | 1.0 | 0.00 | 0.00 | 0.00 | 64 | ||
| 20260502110701 | 0 | 0.0 | 0.0 | 0.00 | 0.00 | 0.00 | |||
| 20260502105705 | 74 | 0.0 | 1.0 | 0.00 | 0.00 | 0.00 | 64 | ||
| 20260502104641 | 74 | 0.0 | 1.0 | 0.00 | 0.01 | 0.00 | 64 | ||
| 20260502103706 | 74 | 0.0 | 0.0 | 0.00 | 0.01 | 0.00 | 64 | ||
| 20260502102641 | 73 | 0.0 | 0.0 | 0.00 | 0.04 | 0.00 | 65 | ||
| 20260502101705 | 73 | 0.0 | 0.0 | 0.00 | 0.07 | 0.00 | 63 | ||
| 20260502100642 | 74 | 0.0 | 0.0 | 0.00 | 0.08 | 0.00 | 63 | ||
| 20260502090641 | 71 | 0.0 | 0.0 | 0.00 | 0.08 | 0.00 | 72 | ||
| 20260502070641 | 67 | 0.0 | 1.0 | 0.00 | 0.08 | 0.00 | 79 | ||
| 20260502065705 | 67 | 0.0 | 0.0 | 0.00 | 0.08 | 0.00 | 80 | ||
| 20260502064641 | 66 | 0.0 | 0.0 | 0.00 | 0.08 | 0.00 | 80 | ||
| 20260502063705 | 66 | 0.0 | 0.0 | 0.00 | 0.08 | 0.00 | 81 | ||
| 20260502062641 | 65 | 0.0 | 1.0 | 0.00 | 0.08 | 0.00 | 82 | ||
| 20260502060642 | 65 | 0.0 | 1.0 | 0.00 | 0.08 | 0.00 | 83 | ||
| 20260502055705 | 65 | 0.0 | 1.0 | 0.00 | 0.08 | 0.00 | 84 | ||
| 20260502054642 | 65 | 0.0 | 0.0 | 0.00 | 0.08 | 0.00 | 84 | ||
| 20260502053705 | 65 | 0.0 | 1.0 | 0.00 | 0.08 | 0.00 | 85 | ||
| 20260502052641 | 65 | 0.0 | 1.0 | 0.00 | 0.08 | 0.00 | 85 | ||
| 20260502051706 | 65 | 0.0 | 1.0 | 0.00 | 0.08 | 0.00 | 85 | ||
| 20260502050642 | 65 | 0.0 | 1.0 | 0.00 | 0.08 | 0.00 | 85 | ||
| 20260502045706 | 65 | 0.0 | 1.0 | 0.00 | 0.09 | 0.00 | 85 | ||
| 20260502044642 | 65 | 0.0 | 1.0 | 0.00 | 0.09 | 0.00 | 84 | ||
| 20260502043706 | 65 | 0.0 | 1.0 | 0.00 | 0.09 | 0.00 | 84 | ||
| 20260502042642 | 65 | 0.0 | 0.0 | 0.00 | 0.09 | 0.00 | 84 | ||
| 20260502041705 | 65 | 0.0 | 0.0 | 0.00 | 0.09 | 0.00 | 84 | ||
| 20260502040642 | 65 | 0.0 | 0.0 | 0.00 | 0.09 | 0.00 | 84 | ||
| 20260502035326 | 65 | 0.0 | 0.0 | 0.00 | 0.09 | 0.00 | 84 | ||
| 20260502034242 | 65 | 0.0 | 0.0 | 0.00 | 0.09 | 0.00 | 84 | ||
| 20260502033305 | 65 | 0.0 | 0.0 | 0.00 | 0.09 | 0.00 | 84 | ||
| 20260502032242 | 65 | 0.0 | 0.0 | 0.00 | 0.09 | 0.00 | 84 | ||
| 20260502031305 | 65 | 0.0 | 0.0 | 0.00 | 0.09 | 0.00 | 84 | ||
| 20260502030301 | 65 | 0.0 | 0.0 | 0.00 | 0.09 | 0.00 | 84 | ||
| 20260502025706 | 65 | 0.0 | 0.0 | 0.00 | 0.09 | 0.00 | 84 | ||
| 20260502024642 | 65 | 0.0 | 0.0 | 0.00 | 0.09 | 0.00 | 84 | ||
| 20260502023705 | 65 | 0.0 | 0.0 | 0.00 | 0.09 | 0.00 | 84 | ||
| 20260502022642 | 65 | 0.0 | 0.0 | 0.00 | 0.09 | 0.00 | 84 | ||
| 20260502021705 | 65 | 0.0 | 0.0 | 0.00 | 0.09 | 0.00 | 84 | ||
| 20260502020642 | 0 | 0.0 | 0.0 | 0.00 | 0.09 | 0.00 | |||
| 20260502015706 | 65 | 0.0 | 0.0 | 0.00 | 0.09 | 0.00 | 84 | ||
| 20260502014642 | 65 | 0.0 | 0.0 | 0.00 | 0.09 | 0.00 | 83 | ||
| 20260502013705 | 65 | 0.0 | 1.0 | 0.00 | 0.09 | 0.00 | 83 | ||
| 20260502012642 | 65 | 0.0 | 0.0 | 0.00 | 0.09 | 0.00 | 83 | ||
| 20260502011726 | 65 | 0.0 | 0.0 | 0.00 | 0.09 | 0.00 | 83 | ||
| 20260502010642 | 65 | 0.0 | 0.0 | 0.00 | 0.09 | 0.00 | 83 | ||
| 20260502005706 | 65 | 0.0 | 0.0 | 0.00 | 0.09 | 0.00 | 83 | ||
| 20260502004642 | 65 | 0.0 | 1.0 | 0.00 | 0.09 | 0.00 | 83 | ||
| 20260502003706 | 65 | 0.0 | 1.0 | 0.00 | 0.09 | 0.00 | 83 | ||
| 20260502002642 | 65 | 0.0 | 0.0 | 0.00 | 0.09 | 0.00 | 83 | ||
| 20260502001745 | 65 | 0.0 | 1.0 | 0.00 | 0.09 | 0.00 | 83 | ||
| 20260502000643 | 0 | 0.0 | 0.0 | 0.00 | 0.09 | 0.00 | |||
| 20260501235726 | 66 | 0.0 | 0.0 | 0.00 | 0.09 | 0.00 | 83 | ||
| 20260501234642 | 66 | 0.0 | 0.0 | 0.00 | 0.09 | 0.00 | 83 | ||
| 20260501233706 | 66 | 0.0 | 0.0 | 0.00 | 0.09 | 0.00 | 83 | ||
| 20260501232722 | 66 | 0.0 | 0.0 | 0.00 | 0.09 | 0.00 | 83 | ||
| 20260501231705 | 66 | 0.0 | 1.0 | 0.00 | 0.09 | 0.00 | 83 | ||
| 20260501230702 | 66 | 0.0 | 1.0 | 0.00 | 0.09 | 0.00 | 83 | ||
| 20260501225747 | 66 | 0.0 | 0.0 | 0.00 | 0.09 | 0.00 | 83 | ||
| 20260501224642 | 66 | 0.0 | 1.0 | 0.00 | 0.09 | 0.00 | 83 | ||
| 20260501223706 | 66 | 0.0 | 0.0 | 0.00 | 0.09 | 0.00 | 83 | ||
| 20260501222642 | 66 | 0.0 | 1.0 | 0.00 | 0.09 | 0.00 | 82 | ||
| 20260501221726 | 66 | 0.0 | 0.0 | 0.00 | 0.09 | 0.00 | 82 | ||
| 20260501220642 | 0 | 0.0 | 0.0 | 0.00 | 0.09 | 0.00 | |||
| 20260501215706 | 66 | 0.0 | 0.0 | 0.00 | 0.09 | 0.09 | 81 | ||
| 20260501214642 | 66 | 0.0 | 1.0 | 0.00 | 0.09 | 0.09 | 81 | ||
| 20260501213706 | 66 | 0.0 | 0.0 | 0.00 | 0.09 | 0.09 | 81 | ||
| 20260501212643 | 66 | 0.0 | 0.0 | 0.00 | 0.09 | 0.09 | 81 | ||
| 20260501211707 | 66 | 0.0 | 1.0 | 0.00 | 0.09 | 0.09 | 81 | ||
| 20260501210703 | 66 | 0.0 | 1.0 | 0.00 | 0.09 | 0.09 | 81 | ||
| 20260501205706 | 66 | 0.0 | 0.0 | 0.00 | 0.09 | 0.09 | 81 | ||
| 20260501204703 | 66 | 0.0 | 0.0 | 0.00 | 0.09 | 0.09 | 81 | ||
| 20260501203708 | 66 | 0.0 | 1.0 | 0.00 | 0.09 | 0.09 | 81 | ||
| 20260501202642 | 66 | 0.0 | 0.0 | 0.00 | 0.09 | 0.09 | 81 | ||
| 20260501201706 | 66 | 0.0 | 0.0 | 0.00 | 0.09 | 0.09 | 81 | ||
| 20260501200702 | 0 | 0.0 | 0.0 | 0.00 | 0.09 | 0.09 | |||
| 20260501195706 | 66 | 0.0 | 1.0 | 0.00 | 0.09 | 0.09 | 81 | ||
| 20260501194643 | 66 | 0.0 | 0.0 | 0.00 | 0.09 | 0.09 | 80 | ||
| 20260501193706 | 66 | 0.0 | 1.0 | 0.00 | 0.09 | 0.09 | 80 | ||
| 20260501192643 | 66 | 0.0 | 1.0 | 0.00 | 0.09 | 0.09 | 80 | ||
| 20260501191706 | 66 | 0.0 | 1.0 | 0.00 | 0.09 | 0.09 | 79 |